owner,sensor,date,latitude,longitude,vertical_datum,sea_water_temperature,qcFlag
ADCP,ioos:station:wmo:42388:1,2021-06-01T00:02:00Z,27.7297,-91.1086,16.1,26.9,11111222
ADCP,ioos:station:wmo:42388:1,2021-06-01T00:12:00Z,27.7297,-91.1086,16.3,26.9,11111222
ADCP,ioos:station:wmo:42388:1,2021-06-01T00:22:00Z,27.7297,-91.1086,16.5,26.9,11111222
ADCP,ioos:station:wmo:42388:1,2021-06-01T00:32:00Z,27.7297,-91.1086,16.4,26.9,11111222
ADCP,ioos:station:wmo:42388:1,2021-06-01T00:42:00Z,27.7297,-91.1086,16.5,26.9,11111222
ADCP,ioos:station:wmo:42388:1,2021-06-01T00:52:00Z,27.7297,-91.1086,16.4,26.9,11111222
ADCP,ioos:station:wmo:42388:1,2021-06-01T01:02:00Z,27.7297,-91.1086,16.4,26.9,11111222
ADCP,ioos:station:wmo:42388:1,2021-06-01T01:12:00Z,27.7297,-91.1086,16.2,26.9,11111222
ADCP,ioos:station:wmo:42388:1,2021-06-01T01:22:00Z,27.7297,-91.1086,16.5,26.9,11111222
ADCP,ioos:station:wmo:42388:1,2021-06-01T01:32:00Z,27.7297,-91.1086,16.2,26.9,11111222
ADCP,ioos:station:wmo:42388:1,2021-06-01T01:42:00Z,27.7297,-91.1086,16.6,26.9,11111222
ADCP,ioos:station:wmo:42388:1,2021-06-01T01:52:00Z,27.7297,-91.1086,16.5,26.9,11111222
ADCP,ioos:station:wmo:42388:1,2021-06-01T02:02:00Z,27.7297,-91.1086,16.4,26.9,11111222
ADCP,ioos:station:wmo:42388:1,2021-06-01T02:12:00Z,27.7297,-91.1086,16.4,26.9,11111222
ADCP,ioos:station:wmo:42388:1,2021-06-01T02:22:00Z,27.7297,-91.1086,16.2,26.9,11111222
ADCP,ioos:station:wmo:42388:1,2021-06-01T02:32:00Z,27.7297,-91.1086,16.3,26.8,11111222
ADCP,ioos:station:wmo:42388:1,2021-06-01T02:42:00Z,27.7297,-91.1086,16.4,26.8,11111222
ADCP,ioos:station:wmo:42388:1,2021-06-01T02:52:00Z,27.7297,-91.1086,16.4,26.8,11111222
ADCP,ioos:station:wmo:42388:1,2021-06-01T03:02:00Z,27.7297,-91.1086,16.4,26.8,11111222
ADCP,ioos:station:wmo:42388:1,2021-06-01T03:12:00Z,27.7297,-91.1086,16.3,26.8,11111222
ADCP,ioos:station:wmo:42388:1,2021-06-01T03:22:00Z,27.7297,-91.1086,16.1,26.8,11111222
ADCP,ioos:station:wmo:42388:1,2021-06-01T03:32:00Z,27.7297,-91.1086,16.4,26.8,11111222
ADCP,ioos:station:wmo:42388:1,2021-06-01T03:42:00Z,27.7297,-91.1086,16.6,26.8,11111222
ADCP,ioos:station:wmo:42388:1,2021-06-01T03:52:00Z,27.7297,-91.1086,16.5,26.8,11111222
ADCP,ioos:station:wmo:42388:1,2021-06-01T04:02:00Z,27.7297,-91.1086,16.2,26.8,11111222
ADCP,ioos:station:wmo:42388:1,2021-06-01T04:12:00Z,27.7297,-91.1086,16.2,26.8,11111222
ADCP,ioos:station:wmo:42388:1,2021-06-01T04:22:00Z,27.7297,-91.1086,16.3,26.8,11111222
ADCP,ioos:station:wmo:42388:1,2021-06-01T04:32:00Z,27.7297,-91.1086,16.3,26.8,11111222
ADCP,ioos:station:wmo:42388:1,2021-06-01T04:42:00Z,27.7297,-91.1086,16.3,26.8,11111222
ADCP,ioos:station:wmo:42388:1,2021-06-01T04:52:00Z,27.7297,-91.1086,16.3,26.8,11111222
ADCP,ioos:station:wmo:42388:1,2021-06-01T05:02:00Z,27.7297,-91.1086,16.4,26.8,11111222
ADCP,ioos:station:wmo:42388:1,2021-06-01T05:12:00Z,27.7297,-91.1086,16.5,26.8,11111222
ADCP,ioos:station:wmo:42388:1,2021-06-01T05:22:00Z,27.7297,-91.1086,16.3,26.8,11111222
ADCP,ioos:station:wmo:42388:1,2021-06-01T05:32:00Z,27.7297,-91.1086,16.3,26.8,11111222
ADCP,ioos:station:wmo:42388:1,2021-06-01T05:42:00Z,27.7297,-91.1086,16.3,26.8,11111222
ADCP,ioos:station:wmo:42388:1,2021-06-01T05:52:00Z,27.7297,-91.1086,16.5,26.8,11111222
ADCP,ioos:station:wmo:42388:1,2021-06-01T06:02:00Z,27.7297,-91.1086,16.3,26.8,11111222
ADCP,ioos:station:wmo:42388:1,2021-06-01T06:12:00Z,27.7297,-91.1086,16.5,26.8,11111222
ADCP,ioos:station:wmo:42388:1,2021-06-01T06:22:00Z,27.7297,-91.1086,16.2,26.7,11111222
ADCP,ioos:station:wmo:42388:1,2021-06-01T06:33:00Z,27.7297,-91.1086,16.4,26.7,11111222
ADCP,ioos:station:wmo:42388:1,2021-06-01T06:43:00Z,27.7297,-91.1086,16.4,26.8,11111222
ADCP,ioos:station:wmo:42388:1,2021-06-01T06:53:00Z,27.7297,-91.1086,16.2,26.8,11111222
ADCP,ioos:station:wmo:42388:1,2021-06-01T07:03:00Z,27.7297,-91.1086,16.3,26.8,11111222
ADCP,ioos:station:wmo:42388:1,2021-06-01T07:13:00Z,27.7297,-91.1086,16.4,26.8,11111222
ADCP,ioos:station:wmo:42388:1,2021-06-01T07:23:00Z,27.7297,-91.1086,16.2,26.8,11111222
ADCP,ioos:station:wmo:42388:1,2021-06-01T07:33:00Z,27.7297,-91.1086,16.2,26.8,11111222
ADCP,ioos:station:wmo:42388:1,2021-06-01T07:43:00Z,27.7297,-91.1086,16.2,26.8,11111222
ADCP,ioos:station:wmo:42388:1,2021-06-01T07:53:00Z,27.7297,-91.1086,16.3,26.8,11111222
ADCP,ioos:station:wmo:42388:1,2021-06-01T08:03:00Z,27.7297,-91.1086,16.1,26.7,11111222
ADCP,ioos:station:wmo:42388:1,2021-06-01T08:13:00Z,27.7297,-91.1086,16.4,26.7,11111222
ADCP,ioos:station:wmo:42388:1,2021-06-01T08:23:00Z,27.7297,-91.1086,16.1,26.7,11111222
ADCP,ioos:station:wmo:42388:1,2021-06-01T08:33:00Z,27.7297,-91.1086,16.4,26.7,11111222
ADCP,ioos:station:wmo:42388:1,2021-06-01T08:43:00Z,27.7297,-91.1086,16.2,26.7,11111222
ADCP,ioos:station:wmo:42388:1,2021-06-01T08:53:00Z,27.7297,-91.1086,16.2,26.7,11111222
ADCP,ioos:station:wmo:42388:1,2021-06-01T09:03:00Z,27.7297,-91.1086,16.2,26.7,11111222
ADCP,ioos:station:wmo:42388:1,2021-06-01T09:13:00Z,27.7297,-91.1086,16.3,26.7,11111222
ADCP,ioos:station:wmo:42388:1,2021-06-01T09:23:00Z,27.7297,-91.1086,16.3,26.7,11111222
ADCP,ioos:station:wmo:42388:1,2021-06-01T09:33:00Z,27.7297,-91.1086,16.3,26.7,11111222
ADCP,ioos:station:wmo:42388:1,2021-06-01T09:43:00Z,27.7297,-91.1086,16.3,26.7,11111222
ADCP,ioos:station:wmo:42388:1,2021-06-01T09:53:00Z,27.7297,-91.1086,16.5,26.6,11111222
ADCP,ioos:station:wmo:42388:1,2021-06-01T10:03:00Z,27.7297,-91.1086,16.5,26.6,11111222
ADCP,ioos:station:wmo:42388:1,2021-06-01T10:13:00Z,27.7297,-91.1086,16.1,26.6,11111222
ADCP,ioos:station:wmo:42388:1,2021-06-01T10:23:00Z,27.7297,-91.1086,16.2,26.5,11111222
ADCP,ioos:station:wmo:42388:1,2021-06-01T10:33:00Z,27.7297,-91.1086,16.0,26.4,11111222
ADCP,ioos:station:wmo:42388:1,2021-06-01T10:43:00Z,27.7297,-91.1086,16.4,26.4,11111222
ADCP,ioos:station:wmo:42388:1,2021-06-01T10:53:00Z,27.7297,-91.1086,16.0,26.4,11111222
ADCP,ioos:station:wmo:42388:1,2021-06-01T11:03:00Z,27.7297,-91.1086,16.1,26.4,11111222
ADCP,ioos:station:wmo:42388:1,2021-06-01T11:13:00Z,27.7297,-91.1086,16.0,26.3,11111222
ADCP,ioos:station:wmo:42388:1,2021-06-01T11:23:00Z,27.7297,-91.1086,15.9,26.4,11111222
ADCP,ioos:station:wmo:42388:1,2021-06-01T11:33:00Z,27.7297,-91.1086,16.1,26.3,11111222
ADCP,ioos:station:wmo:42388:1,2021-06-01T11:43:00Z,27.7297,-91.1086,15.9,26.3,11111222
ADCP,ioos:station:wmo:42388:1,2021-06-01T11:53:00Z,27.7297,-91.1086,16.1,26.3,11111222
ADCP,ioos:station:wmo:42388:1,2021-06-01T12:03:00Z,27.7297,-91.1086,16.1,26.3,11111222
ADCP,ioos:station:wmo:42388:1,2021-06-01T12:13:00Z,27.7297,-91.1086,16.2,26.2,11111222
ADCP,ioos:station:wmo:42388:1,2021-06-01T12:23:00Z,27.7297,-91.1086,16.0,26.1,11111222
ADCP,ioos:station:wmo:42388:1,2021-06-01T12:33:00Z,27.7297,-91.1086,16.1,26.1,11111222
ADCP,ioos:station:wmo:42388:1,2021-06-01T12:43:00Z,27.7297,-91.1086,16.0,26.2,11111222
ADCP,ioos:station:wmo:42388:1,2021-06-01T12:53:00Z,27.7297,-91.1086,15.9,26.3,11111222
ADCP,ioos:station:wmo:42388:1,2021-06-01T13:03:00Z,27.7297,-91.1086,16.0,26.3,11111222
ADCP,ioos:station:wmo:42388:1,2021-06-01T13:13:00Z,27.7297,-91.1086,16.1,26.3,11111222
ADCP,ioos:station:wmo:42388:1,2021-06-01T13:23:00Z,27.7297,-91.1086,15.7,26.2,11111222
ADCP,ioos:station:wmo:42388:1,2021-06-01T13:33:00Z,27.7297,-91.1086,16.1,26.1,11111222
ADCP,ioos:station:wmo:42388:1,2021-06-01T13:43:00Z,27.7297,-91.1086,15.8,26.1,11111222
ADCP,ioos:station:wmo:42388:1,2021-06-01T13:53:00Z,27.7297,-91.1086,16.0,26.1,11111222
ADCP,ioos:station:wmo:42388:1,2021-06-01T14:03:00Z,27.7297,-91.1086,15.9,26.2,11111222
ADCP,ioos:station:wmo:42388:1,2021-06-01T14:13:00Z,27.7297,-91.1086,16.2,26.2,11111222
ADCP,ioos:station:wmo:42388:1,2021-06-01T14:23:00Z,27.7297,-91.1086,16.0,26.2,11111222
ADCP,ioos:station:wmo:42388:1,2021-06-01T14:33:00Z,27.7297,-91.1086,15.9,26.3,11111222
ADCP,ioos:station:wmo:42388:1,2021-06-01T14:43:00Z,27.7297,-91.1086,15.8,26.3,11111222
ADCP,ioos:station:wmo:42388:1,2021-06-01T14:53:00Z,27.7297,-91.1086,16.1,26.4,11111222
ADCP,ioos:station:wmo:42388:1,2021-06-01T15:03:00Z,27.7297,-91.1086,16.1,26.4,11111222
ADCP,ioos:station:wmo:42388:1,2021-06-01T15:13:00Z,27.7297,-91.1086,16.2,26.4,11111222
ADCP,ioos:station:wmo:42388:1,2021-06-01T15:23:00Z,27.7297,-91.1086,15.8,26.4,11111222
ADCP,ioos:station:wmo:42388:1,2021-06-01T15:33:00Z,27.7297,-91.1086,16.3,26.3,11111222
ADCP,ioos:station:wmo:42388:1,2021-06-01T15:43:00Z,27.7297,-91.1086,15.9,26.3,11111222
ADCP,ioos:station:wmo:42388:1,2021-06-01T15:53:00Z,27.7297,-91.1086,16.0,26.4,11111222
ADCP,ioos:station:wmo:42388:1,2021-06-01T16:03:00Z,27.7297,-91.1086,16.2,26.5,11111222
ADCP,ioos:station:wmo:42388:1,2021-06-01T16:13:00Z,27.7297,-91.1086,16.3,26.5,11111222
ADCP,ioos:station:wmo:42388:1,2021-06-01T16:23:00Z,27.7297,-91.1086,16.3,26.5,11111222
ADCP,ioos:station:wmo:42388:1,2021-06-01T16:33:00Z,27.7297,-91.1086,16.3,26.6,11111222
ADCP,ioos:station:wmo:42388:1,2021-06-01T16:43:00Z,27.7297,-91.1086,16.4,26.5,11111222
ADCP,ioos:station:wmo:42388:1,2021-06-01T16:53:00Z,27.7297,-91.1086,16.3,26.5,11111222
ADCP,ioos:station:wmo:42388:1,2021-06-01T17:03:00Z,27.7297,-91.1086,16.3,26.5,11111222
ADCP,ioos:station:wmo:42388:1,2021-06-01T17:13:00Z,27.7297,-91.1086,16.1,26.5,11111222
ADCP,ioos:station:wmo:42388:1,2021-06-01T17:23:00Z,27.7297,-91.1086,16.2,26.5,11111222
ADCP,ioos:station:wmo:42388:1,2021-06-01T17:33:00Z,27.7297,-91.1086,16.3,26.5,11111222
ADCP,ioos:station:wmo:42388:1,2021-06-01T17:43:00Z,27.7297,-91.1086,16.2,26.5,11111222
ADCP,ioos:station:wmo:42388:1,2021-06-01T17:53:00Z,27.7297,-91.1086,16.3,26.5,11111222
ADCP,ioos:station:wmo:42388:1,2021-06-01T18:03:00Z,27.7297,-91.1086,16.2,26.5,11111222
ADCP,ioos:station:wmo:42388:1,2021-06-01T18:13:00Z,27.7297,-91.1086,16.2,26.5,11111222
ADCP,ioos:station:wmo:42388:1,2021-06-01T18:23:00Z,27.7297,-91.1086,16.3,26.6,11111222
ADCP,ioos:station:wmo:42388:1,2021-06-01T18:33:00Z,27.7297,-91.1086,16.2,26.6,11111222
ADCP,ioos:station:wmo:42388:1,2021-06-01T18:43:00Z,27.7297,-91.1086,16.2,26.5,11111222
ADCP,ioos:station:wmo:42388:1,2021-06-01T18:53:00Z,27.7297,-91.1086,16.3,26.5,11111222
ADCP,ioos:station:wmo:42388:1,2021-06-01T19:03:00Z,27.7297,-91.1086,16.4,26.5,11111222
ADCP,ioos:station:wmo:42388:1,2021-06-01T19:13:00Z,27.7297,-91.1086,16.2,26.5,11111222
ADCP,ioos:station:wmo:42388:1,2021-06-01T19:23:00Z,27.7297,-91.1086,16.3,26.6,11111222
ADCP,ioos:station:wmo:42388:1,2021-06-01T19:33:00Z,27.7297,-91.1086,16.2,26.6,11111222
ADCP,ioos:station:wmo:42388:1,2021-06-01T19:43:00Z,27.7297,-91.1086,16.2,26.6,11111222
ADCP,ioos:station:wmo:42388:1,2021-06-01T19:53:00Z,27.7297,-91.1086,16.0,26.5,11111222
ADCP,ioos:station:wmo:42388:1,2021-06-01T20:03:00Z,27.7297,-91.1086,16.1,26.5,11111222
ADCP,ioos:station:wmo:42388:1,2021-06-01T20:13:00Z,27.7297,-91.1086,16.0,26.5,11111222
ADCP,ioos:station:wmo:42388:1,2021-06-01T20:23:00Z,27.7297,-91.1086,16.1,26.5,11111222
ADCP,ioos:station:wmo:42388:1,2021-06-01T20:33:00Z,27.7297,-91.1086,16.1,26.5,11111222
ADCP,ioos:station:wmo:42388:1,2021-06-01T20:43:00Z,27.7297,-91.1086,16.1,26.5,11111222
ADCP,ioos:station:wmo:42388:1,2021-06-01T20:53:00Z,27.7297,-91.1086,16.2,26.5,11111222
ADCP,ioos:station:wmo:42388:1,2021-06-01T21:03:00Z,27.7297,-91.1086,16.3,26.6,11111222
ADCP,ioos:station:wmo:42388:1,2021-06-01T21:13:00Z,27.7297,-91.1086,16.5,26.6,11111222
ADCP,ioos:station:wmo:42388:1,2021-06-01T21:23:00Z,27.7297,-91.1086,16.3,26.6,11111222
ADCP,ioos:station:wmo:42388:1,2021-06-01T21:33:00Z,27.7297,-91.1086,16.2,26.6,11111222
ADCP,ioos:station:wmo:42388:1,2021-06-01T21:43:00Z,27.7297,-91.1086,16.3,26.7,11111222
ADCP,ioos:station:wmo:42388:1,2021-06-01T21:53:00Z,27.7297,-91.1086,16.2,26.6,11111222
ADCP,ioos:station:wmo:42388:1,2021-06-01T22:03:00Z,27.7297,-91.1086,16.2,26.7,11111222
ADCP,ioos:station:wmo:42388:1,2021-06-01T22:13:00Z,27.7297,-91.1086,16.1,26.7,11111222
ADCP,ioos:station:wmo:42388:1,2021-06-01T22:23:00Z,27.7297,-91.1086,16.4,26.6,11111222
ADCP,ioos:station:wmo:42388:1,2021-06-01T22:33:00Z,27.7297,-91.1086,16.2,26.7,11111222
ADCP,ioos:station:wmo:42388:1,2021-06-01T22:43:00Z,27.7297,-91.1086,16.3,26.7,11111222
ADCP,ioos:station:wmo:42388:1,2021-06-01T22:53:00Z,27.7297,-91.1086,16.3,26.7,11111222
ADCP,ioos:station:wmo:42388:1,2021-06-01T23:03:00Z,27.7297,-91.1086,16.2,26.7,11111222
ADCP,ioos:station:wmo:42388:1,2021-06-01T23:13:00Z,27.7297,-91.1086,16.3,26.7,11111222
ADCP,ioos:station:wmo:42388:1,2021-06-01T23:23:00Z,27.7297,-91.1086,16.2,26.6,11111222
ADCP,ioos:station:wmo:42388:1,2021-06-01T23:33:00Z,27.7297,-91.1086,16.3,26.6,11111222
ADCP,ioos:station:wmo:42388:1,2021-06-01T23:43:00Z,27.7297,-91.1086,16.2,26.5,11111222
ADCP,ioos:station:wmo:42388:1,2021-06-01T23:54:00Z,27.7297,-91.1086,15.9,26.5,11111222
ADCP,ioos:station:wmo:42388:1,2021-06-02T00:04:00Z,27.7297,-91.1086,16.2,26.5,11111222
ADCP,ioos:station:wmo:42388:1,2021-06-02T00:14:00Z,27.7297,-91.1086,16.3,26.5,11111222
ADCP,ioos:station:wmo:42388:1,2021-06-02T00:24:00Z,27.7297,-91.1086,16.1,26.4,11111222
ADCP,ioos:station:wmo:42388:1,2021-06-02T00:34:00Z,27.7297,-91.1086,16.1,26.4,11111222
ADCP,ioos:station:wmo:42388:1,2021-06-02T00:44:00Z,27.7297,-91.1086,16.1,26.4,11111222
ADCP,ioos:station:wmo:42388:1,2021-06-02T00:54:00Z,27.7297,-91.1086,16.2,26.6,11111222
ADCP,ioos:station:wmo:42388:1,2021-06-02T01:04:00Z,27.7297,-91.1086,16.1,26.6,11111222
ADCP,ioos:station:wmo:42388:1,2021-06-02T01:14:00Z,27.7297,-91.1086,16.3,26.5,11111222
ADCP,ioos:station:wmo:42388:1,2021-06-02T01:24:00Z,27.7297,-91.1086,16.2,26.6,11111222
ADCP,ioos:station:wmo:42388:1,2021-06-02T01:34:00Z,27.7297,-91.1086,16.1,26.5,11111222
ADCP,ioos:station:wmo:42388:1,2021-06-02T01:44:00Z,27.7297,-91.1086,16.2,26.5,11111222
ADCP,ioos:station:wmo:42388:1,2021-06-02T01:54:00Z,27.7297,-91.1086,16.1,26.6,11111222
ADCP,ioos:station:wmo:42388:1,2021-06-02T02:04:00Z,27.7297,-91.1086,16.1,26.5,11111222
ADCP,ioos:station:wmo:42388:1,2021-06-02T02:14:00Z,27.7297,-91.1086,16.3,26.5,11111222
ADCP,ioos:station:wmo:42388:1,2021-06-02T02:24:00Z,27.7297,-91.1086,16.3,26.6,11111222
ADCP,ioos:station:wmo:42388:1,2021-06-02T02:34:00Z,27.7297,-91.1086,16.2,26.5,11111222
ADCP,ioos:station:wmo:42388:1,2021-06-02T02:44:00Z,27.7297,-91.1086,16.2,26.5,11111222
ADCP,ioos:station:wmo:42388:1,2021-06-02T02:54:00Z,27.7297,-91.1086,16.0,26.5,11111222
ADCP,ioos:station:wmo:42388:1,2021-06-02T03:04:00Z,27.7297,-91.1086,16.3,26.6,11111222
ADCP,ioos:station:wmo:42388:1,2021-06-02T03:14:00Z,27.7297,-91.1086,16.1,26.6,11111222
ADCP,ioos:station:wmo:42388:1,2021-06-02T03:24:00Z,27.7297,-91.1086,16.1,26.6,11111222
ADCP,ioos:station:wmo:42388:1,2021-06-02T03:34:00Z,27.7297,-91.1086,16.1,26.7,11111222
ADCP,ioos:station:wmo:42388:1,2021-06-02T03:44:00Z,27.7297,-91.1086,16.5,26.7,11111222
ADCP,ioos:station:wmo:42388:1,2021-06-02T03:54:00Z,27.7297,-91.1086,16.1,26.7,11111222
ADCP,ioos:station:wmo:42388:1,2021-06-02T04:04:00Z,27.7297,-91.1086,16.4,26.6,11111222
ADCP,ioos:station:wmo:42388:1,2021-06-02T04:14:00Z,27.7297,-91.1086,16.3,26.6,11111222
ADCP,ioos:station:wmo:42388:1,2021-06-02T04:24:00Z,27.7297,-91.1086,16.2,26.7,11111222
ADCP,ioos:station:wmo:42388:1,2021-06-02T04:34:00Z,27.7297,-91.1086,16.4,26.7,11111222
ADCP,ioos:station:wmo:42388:1,2021-06-02T04:44:00Z,27.7297,-91.1086,16.4,26.7,11111222
ADCP,ioos:station:wmo:42388:1,2021-06-02T04:54:00Z,27.7297,-91.1086,16.3,26.7,11111222
ADCP,ioos:station:wmo:42388:1,2021-06-02T05:04:00Z,27.7297,-91.1086,16.2,26.7,11111222
ADCP,ioos:station:wmo:42388:1,2021-06-02T05:14:00Z,27.7297,-91.1086,15.9,26.6,11111222
ADCP,ioos:station:wmo:42388:1,2021-06-02T05:24:00Z,27.7297,-91.1086,16.3,26.6,11111222
ADCP,ioos:station:wmo:42388:1,2021-06-02T05:34:00Z,27.7297,-91.1086,16.2,26.6,11111222
ADCP,ioos:station:wmo:42388:1,2021-06-02T05:44:00Z,27.7297,-91.1086,16.3,26.6,11111222
ADCP,ioos:station:wmo:42388:1,2021-06-02T05:54:00Z,27.7297,-91.1086,16.2,26.6,11111222
ADCP,ioos:station:wmo:42388:1,2021-06-02T06:04:00Z,27.7297,-91.1086,16.4,26.6,11111222
ADCP,ioos:station:wmo:42388:1,2021-06-02T06:14:00Z,27.7297,-91.1086,16.2,26.6,11111222
ADCP,ioos:station:wmo:42388:1,2021-06-02T06:24:00Z,27.7297,-91.1086,16.3,26.6,11111222
ADCP,ioos:station:wmo:42388:1,2021-06-02T06:34:00Z,27.7297,-91.1086,16.1,26.6,11111222
ADCP,ioos:station:wmo:42388:1,2021-06-02T06:44:00Z,27.7297,-91.1086,16.3,26.6,11111222
ADCP,ioos:station:wmo:42388:1,2021-06-02T06:54:00Z,27.7297,-91.1086,16.3,26.6,11111222
ADCP,ioos:station:wmo:42388:1,2021-06-02T07:04:00Z,27.7297,-91.1086,16.2,26.6,11111222
ADCP,ioos:station:wmo:42388:1,2021-06-02T07:14:00Z,27.7297,-91.1086,16.4,26.6,11111222
ADCP,ioos:station:wmo:42388:1,2021-06-02T07:24:00Z,27.7297,-91.1086,16.2,26.5,11111222
ADCP,ioos:station:wmo:42388:1,2021-06-02T07:34:00Z,27.7297,-91.1086,16.1,26.5,11111222
ADCP,ioos:station:wmo:42388:1,2021-06-02T07:44:00Z,27.7297,-91.1086,16.1,26.6,11111222
ADCP,ioos:station:wmo:42388:1,2021-06-02T07:54:00Z,27.7297,-91.1086,16.2,26.6,11111222
ADCP,ioos:station:wmo:42388:1,2021-06-02T08:04:00Z,27.7297,-91.1086,16.1,26.6,11111222
ADCP,ioos:station:wmo:42388:1,2021-06-02T08:14:00Z,27.7297,-91.1086,16.2,26.6,11111222
ADCP,ioos:station:wmo:42388:1,2021-06-02T08:24:00Z,27.7297,-91.1086,15.9,26.6,11111222
ADCP,ioos:station:wmo:42388:1,2021-06-02T08:34:00Z,27.7297,-91.1086,16.5,26.5,11111222
ADCP,ioos:station:wmo:42388:1,2021-06-02T08:44:00Z,27.7297,-91.1086,15.9,26.4,11111222
ADCP,ioos:station:wmo:42388:1,2021-06-02T08:54:00Z,27.7297,-91.1086,16.1,26.4,11111222
ADCP,ioos:station:wmo:42388:1,2021-06-02T09:04:00Z,27.7297,-91.1086,16.0,26.3,11111222
ADCP,ioos:station:wmo:42388:1,2021-06-02T09:14:00Z,27.7297,-91.1086,15.9,26.3,11111222
ADCP,ioos:station:wmo:42388:1,2021-06-02T09:24:00Z,27.7297,-91.1086,15.7,26.2,11111222
ADCP,ioos:station:wmo:42388:1,2021-06-02T09:34:00Z,27.7297,-91.1086,16.0,26.2,11111222
ADCP,ioos:station:wmo:42388:1,2021-06-02T09:44:00Z,27.7297,-91.1086,16.0,26.2,11111222
ADCP,ioos:station:wmo:42388:1,2021-06-02T09:54:00Z,27.7297,-91.1086,16.0,26.2,11111222
ADCP,ioos:station:wmo:42388:1,2021-06-02T10:04:00Z,27.7297,-91.1086,16.2,26.2,11111222
ADCP,ioos:station:wmo:42388:1,2021-06-02T10:14:00Z,27.7297,-91.1086,15.6,26.2,11111222
ADCP,ioos:station:wmo:42388:1,2021-06-02T10:24:00Z,27.7297,-91.1086,16.1,26.2,11111222
ADCP,ioos:station:wmo:42388:1,2021-06-02T10:34:00Z,27.7297,-91.1086,15.9,26.2,11111222
ADCP,ioos:station:wmo:42388:1,2021-06-02T10:44:00Z,27.7297,-91.1086,15.9,26.2,11111222
ADCP,ioos:station:wmo:42388:1,2021-06-02T10:54:00Z,27.7297,-91.1086,16.1,26.2,11111222
ADCP,ioos:station:wmo:42388:1,2021-06-02T11:04:00Z,27.7297,-91.1086,16.1,26.2,11111222
ADCP,ioos:station:wmo:42388:1,2021-06-02T11:14:00Z,27.7297,-91.1086,16.0,26.2,11111222
ADCP,ioos:station:wmo:42388:1,2021-06-02T11:24:00Z,27.7297,-91.1086,15.9,26.2,11111222
ADCP,ioos:station:wmo:42388:1,2021-06-02T11:34:00Z,27.7297,-91.1086,15.9,26.2,11111222
ADCP,ioos:station:wmo:42388:1,2021-06-02T11:44:00Z,27.7297,-91.1086,15.8,26.3,11111222
ADCP,ioos:station:wmo:42388:1,2021-06-02T11:54:00Z,27.7297,-91.1086,16.0,26.2,11111222
ADCP,ioos:station:wmo:42388:1,2021-06-02T12:04:00Z,27.7297,-91.1086,15.8,26.2,11111222
ADCP,ioos:station:wmo:42388:1,2021-06-02T12:14:00Z,27.7297,-91.1086,15.9,26.2,11111222
ADCP,ioos:station:wmo:42388:1,2021-06-02T12:24:00Z,27.7297,-91.1086,15.9,26.2,11111222
ADCP,ioos:station:wmo:42388:1,2021-06-02T12:34:00Z,27.7297,-91.1086,15.9,26.2,11111222
ADCP,ioos:station:wmo:42388:1,2021-06-02T12:44:00Z,27.7297,-91.1086,15.8,26.2,11111222
ADCP,ioos:station:wmo:42388:1,2021-06-02T12:54:00Z,27.7297,-91.1086,16.1,26.2,11111222
ADCP,ioos:station:wmo:42388:1,2021-06-02T13:04:00Z,27.7297,-91.1086,16.0,26.2,11111222
ADCP,ioos:station:wmo:42388:1,2021-06-02T13:14:00Z,27.7297,-91.1086,16.0,26.2,11111222
ADCP,ioos:station:wmo:42388:1,2021-06-02T13:24:00Z,27.7297,-91.1086,15.9,26.2,11111222
ADCP,ioos:station:wmo:42388:1,2021-06-02T13:34:00Z,27.7297,-91.1086,15.9,26.2,11111222
ADCP,ioos:station:wmo:42388:1,2021-06-02T13:44:00Z,27.7297,-91.1086,15.9,26.4,11111222
ADCP,ioos:station:wmo:42388:1,2021-06-02T13:54:00Z,27.7297,-91.1086,16.3,26.6,11111222
ADCP,ioos:station:wmo:42388:1,2021-06-02T14:04:00Z,27.7297,-91.1086,16.2,26.7,11111222
ADCP,ioos:station:wmo:42388:1,2021-06-02T14:14:00Z,27.7297,-91.1086,16.4,26.7,11111222
ADCP,ioos:station:wmo:42388:1,2021-06-02T14:24:00Z,27.7297,-91.1086,16.2,26.6,11111222
ADCP,ioos:station:wmo:42388:1,2021-06-02T14:34:00Z,27.7297,-91.1086,16.1,26.7,11111222
ADCP,ioos:station:wmo:42388:1,2021-06-02T14:44:00Z,27.7297,-91.1086,16.0,26.7,11111222
ADCP,ioos:station:wmo:42388:1,2021-06-02T14:54:00Z,27.7297,-91.1086,16.4,26.6,11111222
ADCP,ioos:station:wmo:42388:1,2021-06-02T15:04:00Z,27.7297,-91.1086,16.2,26.5,11111222
ADCP,ioos:station:wmo:42388:1,2021-06-02T15:14:00Z,27.7297,-91.1086,16.3,26.6,11111222
ADCP,ioos:station:wmo:42388:1,2021-06-02T15:24:00Z,27.7297,-91.1086,16.1,26.7,11111222
ADCP,ioos:station:wmo:42388:1,2021-06-02T15:34:00Z,27.7297,-91.1086,16.2,26.7,11111222
ADCP,ioos:station:wmo:42388:1,2021-06-02T15:44:00Z,27.7297,-91.1086,16.2,26.6,11111222
ADCP,ioos:station:wmo:42388:1,2021-06-02T15:54:00Z,27.7297,-91.1086,16.1,26.6,11111222
ADCP,ioos:station:wmo:42388:1,2021-06-02T16:04:00Z,27.7297,-91.1086,16.2,26.6,11111222
ADCP,ioos:station:wmo:42388:1,2021-06-02T16:14:00Z,27.7297,-91.1086,16.3,26.6,11111222
ADCP,ioos:station:wmo:42388:1,2021-06-02T16:24:00Z,27.7297,-91.1086,16.1,26.6,11111222
ADCP,ioos:station:wmo:42388:1,2021-06-02T16:34:00Z,27.7297,-91.1086,16.2,26.6,11111222
ADCP,ioos:station:wmo:42388:1,2021-06-02T16:44:00Z,27.7297,-91.1086,16.1,26.6,11111222
ADCP,ioos:station:wmo:42388:1,2021-06-02T16:54:00Z,27.7297,-91.1086,16.3,26.7,11111222
ADCP,ioos:station:wmo:42388:1,2021-06-02T17:04:00Z,27.7297,-91.1086,16.2,26.7,11111222
ADCP,ioos:station:wmo:42388:1,2021-06-02T17:15:00Z,27.7297,-91.1086,16.2,26.7,11111222
ADCP,ioos:station:wmo:42388:1,2021-06-02T17:25:00Z,27.7297,-91.1086,16.1,26.7,11111222
ADCP,ioos:station:wmo:42388:1,2021-06-02T17:35:00Z,27.7297,-91.1086,16.2,26.7,11111222
ADCP,ioos:station:wmo:42388:1,2021-06-02T17:45:00Z,27.7297,-91.1086,16.4,26.7,11111222
ADCP,ioos:station:wmo:42388:1,2021-06-02T17:55:00Z,27.7297,-91.1086,16.4,26.7,11111222
ADCP,ioos:station:wmo:42388:1,2021-06-02T18:05:00Z,27.7297,-91.1086,16.0,26.7,11111222
ADCP,ioos:station:wmo:42388:1,2021-06-02T18:15:00Z,27.7297,-91.1086,16.2,26.7,11111222
ADCP,ioos:station:wmo:42388:1,2021-06-02T18:25:00Z,27.7297,-91.1086,16.2,26.7,11111222
ADCP,ioos:station:wmo:42388:1,2021-06-02T18:35:00Z,27.7297,-91.1086,16.2,26.7,11111222
ADCP,ioos:station:wmo:42388:1,2021-06-02T18:45:00Z,27.7297,-91.1086,16.3,26.7,11111222
ADCP,ioos:station:wmo:42388:1,2021-06-02T18:55:00Z,27.7297,-91.1086,16.3,26.7,11111222
ADCP,ioos:station:wmo:42388:1,2021-06-02T19:05:00Z,27.7297,-91.1086,16.2,26.7,11111222
ADCP,ioos:station:wmo:42388:1,2021-06-02T19:15:00Z,27.7297,-91.1086,16.3,26.6,11111222
ADCP,ioos:station:wmo:42388:1,2021-06-02T19:25:00Z,27.7297,-91.1086,16.2,26.6,11111222
ADCP,ioos:station:wmo:42388:1,2021-06-02T19:35:00Z,27.7297,-91.1086,16.2,26.7,11111222
ADCP,ioos:station:wmo:42388:1,2021-06-02T19:45:00Z,27.7297,-91.1086,16.2,26.7,11111222
ADCP,ioos:station:wmo:42388:1,2021-06-02T19:55:00Z,27.7297,-91.1086,16.2,26.7,11111222
ADCP,ioos:station:wmo:42388:1,2021-06-02T20:05:00Z,27.7297,-91.1086,16.3,26.7,11111222
ADCP,ioos:station:wmo:42388:1,2021-06-02T20:15:00Z,27.7297,-91.1086,16.3,26.7,11111222
ADCP,ioos:station:wmo:42388:1,2021-06-02T20:25:00Z,27.7297,-91.1086,16.4,26.7,11111222
ADCP,ioos:station:wmo:42388:1,2021-06-02T20:35:00Z,27.7297,-91.1086,16.3,26.7,11111222
ADCP,ioos:station:wmo:42388:1,2021-06-02T20:45:00Z,27.7297,-91.1086,16.4,26.7,11111222
ADCP,ioos:station:wmo:42388:1,2021-06-02T20:55:00Z,27.7297,-91.1086,16.4,26.7,11111222
ADCP,ioos:station:wmo:42388:1,2021-06-02T21:05:00Z,27.7297,-91.1086,16.3,26.7,11111222